Location: Unspecified
(0.0000°N, 0.0000°E)
Time: 04:04:23
(UTC+00:00)

SJ-6F - Pass Details

Date: 05 August 2021
Orbit: 570 x 594 km, 97.8° (Epoch: 26 September)

Event Time Altitude Azimuth Distance (km) Brightness Sun altitude
Rises 04:15:25 0° 7° (N) 2,768 8.2 -26.4°
Reaches altitude 10° 04:17:34 10° 4° (N) 1,871 7.3 -25.9°
Enters shadow 04:19:48 31° 355° (N) 1,002 5.7 -25.3°
